| time (UTC) | temp F | wind direction | speed MPH | gust MPH | rain 1hr in | rain 24hr in | rain mn in | humidity % | barometer mb |
| 20260505022656 | 52 | 277 | 0.0 | 2.0 | 0.00 | 0.00 | 0.00 | 41 | 1010.0 |
| 20260505021638 | 53 | 277 | 1.0 | 1.0 | 0.00 | 0.00 | 0.00 | 39 | 1009.9 |
| 20260505020622 | 53 | 277 | 0.0 | 4.0 | 0.00 | 0.00 | 0.00 | 39 | 1009.8 |
| 20260505015643 | 54 | 276 | 3.0 | 7.0 | 0.00 | 0.00 | 0.00 | 36 | 1009.8 |
| 20260505014624 | 56 | 261 | 2.0 | 6.0 | 0.00 | 0.00 | 0.00 | 35 | 1009.7 |
| 20260505013631 | 56 | 261 | 4.0 | 7.0 | 0.00 | 0.00 | 0.00 | 33 | 1009.7 |
| 20260505012633 | 55 | 251 | 2.0 | 5.0 | 0.00 | 0.00 | 0.00 | 39 | 1009.8 |
| 20260505011616 | 54 | 248 | 4.0 | 7.0 | 0.00 | 0.00 | 0.00 | 42 | 1009.8 |
| 20260505010625 | 53 | 245 | 5.0 | 8.0 | 0.00 | 0.00 | 0.00 | 43 | 1009.9 |
| 20260505005626 | 51 | 271 | 4.0 | 7.0 | 0.00 | 0.00 | 0.00 | 45 | 1010.0 |
| 20260505004633 | 51 | 265 | 5.0 | 11.0 | 0.00 | 0.00 | 0.00 | 45 | 1010.2 |
| 20260505003617 | 52 | 279 | 7.0 | 11.0 | 0.00 | 0.00 | 0.00 | 44 | 1010.3 |
| 20260505002622 | 53 | 286 | 6.0 | 12.0 | 0.00 | 0.00 | 0.00 | 43 | 1010.4 |
| 20260505001629 | 56 | 250 | 4.0 | 25.0 | 0.00 | 0.00 | 0.00 | 39 | 1010.4 |
| 20260505000620 | 59 | 295 | 9.0 | 14.0 | 0.00 | 0.00 | 0.00 | 33 | 1010.0 |
| 20260504235620 | 59 | 279 | 8.0 | 14.0 | 0.00 | 0.00 | 0.00 | 32 | 1010.0 |
| 20260504234622 | 61 | 296 | 7.0 | 13.0 | 0.00 | 0.00 | 0.00 | 32 | 1009.8 |
| 20260504233627 | 61 | 329 | 8.0 | 13.0 | 0.00 | 0.00 | 0.00 | 29 | 1009.8 |
| 20260504232655 | 61 | 275 | 9.0 | 14.0 | 0.00 | 0.00 | 0.00 | 26 | 1009.8 |
| 20260504231617 | 60 | 244 | 5.0 | 11.0 | 0.00 | 0.00 | 0.00 | 24 | 1009.8 |
| 20260504230618 | 61 | 239 | 4.0 | 14.0 | 0.00 | 0.00 | 0.00 | 22 | 1009.8 |
| 20260504225622 | 62 | 262 | 9.0 | 16.0 | 0.00 | 0.00 | 0.00 | 23 | 1009.7 |
| 20260504224630 | 61 | 294 | 2.0 | 10.0 | 0.00 | 0.00 | 0.00 | 23 | 1009.9 |
| 20260504223634 | 62 | 284 | 7.0 | 11.0 | 0.00 | 0.00 | 0.00 | 22 | 1009.9 |
| 20260504222617 | 62 | 267 | 3.0 | 10.0 | 0.00 | 0.00 | 0.00 | 22 | 1010.0 |
| 20260504221618 | 63 | 262 | 7.0 | 11.0 | 0.00 | 0.00 | 0.00 | 22 | 1010.1 |
| 20260504220624 | 64 | 275 | 3.0 | 8.0 | 0.00 | 0.00 | 0.00 | 20 | 1010.2 |
| 20260504215626 | 63 | 132 | 1.0 | 3.0 | 0.00 | 0.00 | 0.00 | 21 | 1010.3 |
| 20260504214630 | 63 | 296 | 4.0 | 13.0 | 0.00 | 0.00 | 0.00 | 24 | 1010.6 |
| 20260504213632 | 62 | 257 | 3.0 | 17.0 | 0.00 | 0.00 | 0.00 | 24 | 1010.6 |
| 20260504212636 | 61 | 288 | 8.0 | 12.0 | 0.00 | 0.00 | 0.00 | 26 | 1010.8 |
| 20260504211623 | 61 | 290 | 8.0 | 13.0 | 0.00 | 0.00 | 0.00 | 25 | 1010.9 |
| 20260504210625 | 60 | 309 | 4.0 | 12.0 | 0.00 | 0.00 | 0.00 | 25 | 1011.0 |
| 20260504205627 | 58 | 275 | 6.0 | 10.0 | 0.00 | 0.00 | 0.00 | 27 | 1011.1 |
| 20260504204630 | 58 | 290 | 3.0 | 7.0 | 0.00 | 0.00 | 0.00 | 26 | 1011.1 |
| 20260504203639 | 59 | 276 | 5.0 | 9.0 | 0.00 | 0.00 | 0.00 | 24 | 1011.2 |
| 20260504202643 | 59 | 271 | 5.0 | 9.0 | 0.00 | 0.00 | 0.00 | 24 | 1011.2 |
| 20260504201625 | 61 | 290 | 5.0 | 12.0 | 0.00 | 0.00 | 0.00 | 24 | 1011.3 |
| 20260504200627 | 61 | 277 | 5.0 | 10.0 | 0.00 | 0.00 | 0.00 | 26 | 1011.5 |
| 20260504195633 | 61 | 246 | 2.0 | 10.0 | 0.00 | 0.00 | 0.00 | 29 | 1011.6 |
| 20260504194617 | 58 | 273 | 4.0 | 9.0 | 0.00 | 0.00 | 0.00 | 30 | 1011.6 |
| 20260504193619 | 57 | 264 | 2.0 | 9.0 | 0.00 | 0.00 | 0.00 | 29 | 1011.7 |
| 20260504192642 | 56 | 237 | 3.0 | 9.0 | 0.00 | 0.00 | 0.00 | 30 | 1011.8 |
| 20260504191626 | 55 | 345 | 1.0 | 4.0 | 0.00 | 0.00 | 0.00 | 31 | 1011.9 |
| 20260504190630 | 55 | 286 | 5.0 | 10.0 | 0.00 | 0.00 | 0.00 | 30 | 1012.1 |
| 20260504185617 | 56 | 254 | 4.0 | 9.0 | 0.00 | 0.00 | 0.00 | 29 | 1012.1 |
| 20260504184618 | 57 | 280 | 4.0 | 11.0 | 0.00 | 0.00 | 0.00 | 30 | 1012.2 |
| 20260504183622 | 57 | 270 | 5.0 | 12.0 | 0.00 | 0.00 | 0.00 | 31 | 1012.2 |
| 20260504182628 | 55 | 295 | 1.0 | 7.0 | 0.00 | 0.00 | 0.00 | 33 | 1012.4 |
| 20260504181618 | 55 | 263 | 2.0 | 8.0 | 0.00 | 0.00 | 0.00 | 31 | 1012.4 |
| 20260504180651 | 56 | 273 | 5.0 | 9.0 | 0.00 | 0.00 | 0.00 | 30 | 1012.6 |
| 20260504175633 | 58 | 283 | 6.0 | 12.0 | 0.00 | 0.00 | 0.00 | 29 | 1012.5 |
| 20260504174634 | 57 | 290 | 3.0 | 6.0 | 0.00 | 0.00 | 0.00 | 32 | 1012.6 |
| 20260504173619 | 58 | 253 | 8.0 | 13.0 | 0.00 | 0.00 | 0.00 | 30 | 1012.6 |
| 20260504172622 | 58 | 258 | 4.0 | 10.0 | 0.00 | 0.00 | 0.00 | 32 | 1012.6 |
| 20260504171631 | 57 | 265 | 2.0 | 11.0 | 0.00 | 0.00 | 0.00 | 33 | 1012.6 |
| 20260504170636 | 57 | 236 | 7.0 | 13.0 | 0.00 | 0.00 | 0.00 | 33 | 1012.7 |
| 20260504150624 | 51 | 290 | 3.0 | 8.0 | 0.00 | 0.00 | 0.00 | 39 | 1012.9 |
| 20260504140630 | 39 | 287 | 1.0 | 3.0 | 0.00 | 0.00 | 0.00 | 63 | 1013.2 |